Location: Petrozavodsk
(61.7955°N, 34.3748°E)
Time: 01:29:10
(UTC+03:00)

Envisat - Pass Details

Date: 30 March 2023
Orbit: 763 x 765 km, 98.2° (Epoch: 28 May)

Event Time Altitude Azimuth Distance (km) Brightness Sun altitude
Rises 02:40:59 0° 24° (NNE) 3,249 7.8 -21.1°
Maximum altitude 02:46:36 10° 74° (ENE) 2,308 6.1 -20.7°
Drops below altitude 10° 02:47:01 10° 79° (ENE) 2,313 6.1 -20.7°
Sets 02:52:11 0° 124° (SE) 3,231 6.2 -20.4°
